Location: Unspecified
(0.0000°N, 0.0000°E)
Time: 15:22:43
(UTC+02:00)

Delta 168 - Visible Passes

Search period start: 28 June 2016 00:00
Search period end: 08 July 2016 00:00
Orbit: 394 x 2073 km, 25.3° (Epoch: 27 June)

Date Brightness Start Highest point End Pass type
(mag) Time Alt. Az. Time Alt. Az. Time Alt. Az.
28 Jun 6.6 04:32:57 11° ENE 04:32:57 11° ENE 04:33:15 10° ENE visible
28 Jun 5.3 06:23:03 19° NW 06:25:29 25° NNW 06:31:36 10° NE visible
29 Jun 5.4 06:14:13 17° NW 06:16:08 20° NNW 06:21:14 10° NNE visible
30 Jun 5.6 06:05:23 15° NNW 06:06:50 16° NNW 06:10:46 10° NNE visible
01 Jul 5.8 05:56:32 12° NNW 05:57:33 13° N 06:00:05 10° NNE visible
06 Jul 5.8 21:08:30 10° SSW 21:11:01 12° S 21:12:51 11° SSE visible
07 Jul 5.7 20:57:35 10° SSW 21:01:42 14° S 21:04:22 12° SSE visible
